Weather in Zamyany

Russia / Astrakhan Oblast     46°49′29″N   47°37′58″E
temp.,
°C
wind,
m/s
gust,
m/s
humid.,
%
clouds,
%
prec.,
mm/h
press.,
hPa
HPBL,
m
1 august, sun
sun101:00+25sse334993 0.0 101151
04:00+24sse3455100 0.0 101154
07:00+25s235013 0.0 1012121
10:00+32se34305 0.0 10121193
13:00+35ssw44255 0.0 10112441
16:00+37sw442432 0.0 10102995
19:00+33sw233617 0.8 1010806
22:00+29ssw46381 1.2 101188
2 august, mon
mon201:00+26ssw34445 0.0 101150
04:00+24sw114999 0.0 101111
07:00+28nne00406 0.0 101228
10:00+34se342020 0.0 1012859
13:00+39ssw46126 0.0 10113345
16:00+40sw5611100 0.0 10104357
19:00+37sse7911100 0.0 1010728
22:00+31sse4820100 0.0 1011157
3 august, tue
tue301:00+28s343090 0.0 101056
04:00+26ssw2238100 0.0 101111
07:00+29ene113441 0.0 101211
10:00+36ese12163 0.0 1012714
13:00+40ssw3590 0.0 10104146
16:00+41sw46840 0.0 10094847
19:00+38ssw68119 0.0 1009693
22:00+31ssw46195 0.0 101085
4 august, wed
wed401:00+28ssw45240 0.0 101051
04:00+26ssw33320 0.0 101034
07:00+28ssw33300 0.0 101176
10:00+36ssw34155 0.0 1011699
13:00+40sw56915 0.0 10103179
16:00+41sw44955 0.0 10093978
19:00+35nnw710245 0.0 1010471
22:00+29wsw11355 0.0 101111
5 august, thu
thu501:00+29wnw45316 0.0 101169
04:00+27nnw5944100 0.0 1011198
07:00+28nnw51044100 0.0 1012449
10:00+29nnw10114796 0.0 1014822
13:00+26nnw4557100 0.5 1014281
16:00+32nw563466 0.5 10131521
19:00+32nnw55310 0.0 10121679
22:00+28n33352 0.0 101324